DMSP 5D-2 F13 DEB, 40609

Orbit data source: Space-Track

DMSP 5D-2 F13 DEB, 40609 is space debris in SSO originally from a launch on Fri, 24 Mar 1995 UTC launched from the Air Force Western Test Range (AFWTR). Debris objects in space refer to the collection of defunct objects orbiting the Earth. Examples of debris include non-operational satellites, rocket bodies, and fragments generated from explosions, collisions, or faulty payload assembly.

Loading next visibility...
Identifier
40609, 1995-015FG
Orbit
SSO
Country
Flag of USUS
Related business
Manufacturer
Unknown
Mission
Spacecraft
Bus & Motor
Unknown
Mass
Unknown
Launch date (UTC)
1995-03-24 (31 years ago)
Launch vehicle
Unknown
Launch site
Air Force Western Test Range (AFWTR)
Object type
Payload
Rocket body
Debris
Shape & HBR
Unknown shape, 0.1 m
Radar Cross Section
Medium (>0.1 m² and <1 m²)

Expand to show TLE details & history
Last TLE update: 1 week ago

TLE from 1 week ago
0 DMSP 5D-2 F13 DEB
1 40609U 95015FG  26166.37686088  .00004291  00000-0  12614-2 0  9998
2 40609  98.6771 210.2945 0003380  60.8898 299.2630 14.44262130579587
Epoch: 2026-06-15T09:02Z
TLE epoch observation values (Epoch: 2026-06-15T09:02:40.780Z)
Latitude
Longitude
170.96046°
Altitude
746.223 km
Speed
7.482 km/s
True Right ascension
14h 01m 10s
True Declination
0° 00' 00"
Sunlit
Object was in full shadow at epoch
Visualization orbit readout
Latitude
Unknown
Longitude
Unknown
Altitude
Unknown
Speed
Unknown
Apparent Right ascension
Unknown
Apparent Declination
Unknown
Sunlit
N/A
Visualization observer readout
Local Sidereal Time
16:32:43
Azimuth
Unknown
Elevation
Unknown
Doppler factor
Unknown
Orbital elements
Apogee altitude
743.982 km
Perigee altitude
739.169 km
Semi-major axis
7,119.713 km
Eccentricity
0.00034
Inclination
98.6771°
RAAN
210.2945°
Arg. of periapsis
60.8898°
True anomaly
299.2292°
Mean anomaly
299.263°
Eccentric anomaly
299.2461°
Mean motion
3.61285 °/min
Orbital period
99.64 mins
BSTAR
0.0012614
Loading maneuver chart data...
Computing Atmospheric mass density...

Documentation

Showing up to 5 results
|